AKST,Max TemperatureF,Mean TemperatureF,Min TemperatureF,Max Dew PointF,MeanDew PointF,Min DewpointF,Max Humidity, Mean Humidity, Min Humidity, Max Sea Level PressureIn, Mean Sea Level PressureIn, Min Sea Level PressureIn, Max VisibilityMiles, Mean VisibilityMiles, Min VisibilityMiles, Max Wind SpeedMPH, Mean Wind SpeedMPH, Max Gust SpeedMPH,PrecipitationIn, CloudCover, Events, WindDirDegrees
2012-11-1,28,24,20,7,5,3,52,43,34,29.85,29.77,29.67,10,10,10,15,11,23,0.00,5,,356
2012-11-2,33,28,22,16,8,4,42,36,29,29.63,29.37,29.23,10,10,10,15,11,21,0.00,6,,359
2012-11-3,31,28,25,17,15,13,68,59,49,29.37,29.35,29.34,10,10,10,12,8,,0.00,5,,23
2012-11-4,30,24,18,15,12,6,74,62,50,29.43,29.37,29.33,10,10,10,7,5,,0.00,1,,34
2012-11-5,25,23,21,8,6,3,61,50,38,29.78,29.62,29.46,10,10,10,18,7,27,0.00,5,,27
2012-11-6,25,18,11,5,3,1,64,51,37,30.17,29.98,29.79,10,10,10,16,8,24,T,4,Snow,1
2012-11-7,24,15,6,12,5,0,84,62,40,30.38,30.31,30.19,10,9,1,5,1,,0.00,1,,138
2012-11-8,24,17,10,14,9,5,92,67,42,30.39,30.33,30.19,10,6,0,8,5,,0.00,7,Fog,29
2012-11-9,28,25,21,26,20,6,92,67,42,30.18,30.00,29.77,10,6,2,9,6,,0.10,8,Snow,4
2012-11-10,32,29,25,28,27,25,92,87,82,29.75,29.62,29.57,10,10,9,7,4,,T,6,Snow,39
2012-11-11,33,29,25,29,26,23,100,91,82,29.80,29.66,29.57,10,10,8,5,1,,0.00,6,,159
2012-11-12,32,26,19,28,26,18,100,91,81,30.06,29.95,29.81,10,5,0,5,1,,0.00,6,Fog,291
2012-11-13,24,22,19,23,20,17,96,85,74,30.06,29.90,29.66,10,4,0,9,4,,0.08,8,Fog-Snow,360
2012-11-14,27,25,23,25,23,20,92,87,81,29.65,29.42,29.29,10,7,1,12,8,,0.05,8,Snow,1
2012-11-15,28,26,24,24,21,17,92,78,63,29.61,29.48,29.37,10,10,10,10,7,,0.00,7,Snow,14
2012-11-16,26,19,12,15,9,4,84,65,45,29.63,29.58,29.47,10,10,10,15,10,25,0.00,1,,357
2012-11-17,18,16,13,2,1,-2,58,51,43,29.45,29.24,29.09,10,10,10,16,13,24,0.00,5,,358
2012-11-18,21,18,14,4,2,1,54,48,41,29.35,29.20,29.08,10,10,10,16,12,23,0.00,5,,360
2012-11-19,17,13,8,1,0,-2,61,52,43,29.52,29.43,29.37,10,10,10,20,10,25,0.00,2,,355
2012-11-20,13,9,5,1,-2,-3,73,63,53,29.69,29.65,29.53,10,10,10,12,6,,0.00,4,,6
2012-11-21,13,10,6,6,0,-4,87,70,53,29.84,29.73,29.69,10,10,10,8,4,,0.00,1,,57
2012-11-22,16,11,6,9,0,-2,80,63,45,29.86,29.69,29.46,10,10,10,12,7,,0.00,1,,29
2012-11-23,22,15,8,11,9,5,84,67,50,29.75,29.63,29.47,10,10,10,8,3,,0.00,4,,35
2012-11-24,17,12,6,11,6,3,92,83,73,30.01,29.87,29.76,10,10,10,6,1,,0.00,2,,93
2012-11-25,15,12,8,9,5,2,92,80,67,30.24,30.13,30.04,10,10,10,7,1,,0.00,2,,83
2012-11-26,15,10,5,8,4,-3,88,78,67,30.32,30.26,30.19,10,9,1,5,2,,0.00,1,,108
2012-11-27,11,7,3,6,2,-3,88,79,70,30.20,30.09,30.00,10,9,0,8,3,,0.00,1,Fog,96
2012-11-28,16,10,3,13,5,-1,88,74,59,30.00,29.85,29.68,10,10,1,9,5,,0.00,1,Fog,148
2012-11-29,14,10,5,8,4,-3,88,67,45,29.65,29.54,29.47,10,10,10,8,3,,0.00,0,,188
2012-11-30,22,13,3,6,3,-2,80,58,36,29.62,29.61,29.58,10,10,10,21,13,29,0.00,0,,355